This demonstration page uses our WeatherBlox Daily Observations layout. Learn more.

Left ArrowRight Arrow

44.8408, -93.29828

Hourly Observations for September 10, 2016

Temp ( °F °C ) Dew Point ( °F °C ) Humidity (%) Winds ( mph kmh ) Pressure ( in mb ) Visibility ( mi km ) Precip ( " mm )
12:53 am 00:53 Cloudy with Light Rain 63 17.2 53 11.7 70 70 WNW 7 11 29.91 1013 10 16 0.00 0.03
1:53 am 01:53 Cloudy 62 16.7 55 12.8 78 78 WNW 7 11 29.91 1013 10 16 0.00 0.03
2:53 am 02:53 Mostly Cloudy 61 16.1 54 12.2 78 78 WNW 10 17 29.89 1012 10 16 0.00 0.00
3:53 am 03:53 Mostly Cloudy 60 15.6 54 12.2 80 80 WNW 6 9 29.88 1012 10 16 0.00 0.00
4:53 am 04:53 Mostly Clear 60 15.6 54 12.2 80 80 NW 15 24 29.89 1012 10 16 0.00 0.00
5:53 am 05:53 Mostly Clear 58 14.4 53 11.7 84 84 NNW 12 19 29.91 1013 10 16 0.00 0.00
6:53 am 06:53 Mostly Sunny 58 14.4 52 11.1 81 81 NW 13 20 29.93 1014 10 16 0.00 0.00
7:53 am 07:53 Partly Cloudy 59 15 52 11.1 78 78 NW 9 15 29.95 1014 10 16 0.00 0.00
8:53 am 08:53 Partly Cloudy 61 16.1 52 11.1 72 72 NNW 16 26 29.97 1015 10 16 0.00 0.00
9:53 am 09:53 Mostly Sunny 64 17.8 49 9.4 58 58 NW 20 31 29.99 1016 10 16 0.00 0.00
10:53 am 10:53 Mostly Sunny 66 18.9 48 8.9 52 52 N 16 26 30.00 1016 10 16 0.00 0.00
11:53 am 11:53 Partly Cloudy 67 19.4 48 8.9 51 51 NNW 17 28 30.01 1016 10 16 0.00 0.00
12:53 pm 12:53 Partly Cloudy 70 21.1 47 8.3 44 44 NNW 15 24 30.01 1016 10 16 0.00 0.00
1:53 pm 13:53 Partly Cloudy 71 21.7 48 8.9 44 44 NNW 17 28 30.01 1016 10 16 0.00 0.00
2:53 pm 14:53 Mostly Cloudy 71 21.7 48 8.9 44 44 NW 13 20 30.02 1017 10 16 0.00 0.00
3:53 pm 15:53 Partly Cloudy 71 21.7 48 8.9 44 44 NNW 13 20 30.02 1017 10 16 0.00 0.00
4:53 pm 16:53 Partly Cloudy 69 20.6 45 7.2 42 42 NNW 15 24 30.03 1017 10 16 0.00 0.00
5:53 pm 17:53 Partly Cloudy 70 21.1 48 8.9 46 46 NW 9 15 30.03 1017 10 16 0.00 0.00
6:53 pm 18:53 Sunny 68 20 47 8.3 47 47 WNW 8 13 30.04 1017 10 16 0.00 0.00
7:53 pm 19:53 Mostly Clear 65 18.3 48 8.9 54 54 W 3 6 30.05 1018 10 16 0.00 0.00
8:53 pm 20:53 Clear 66 18.9 48 8.9 52 52 W 3 6 30.06 1018 10 16 0.00 0.00
9:53 pm 21:53 Clear 64 17.8 50 10 60 60 WSW 5 7 30.06 1018 10 16 0.00 0.00
10:53 pm 22:53 Partly Cloudy 63 17.2 51 10.6 65 65 SW 5 7 30.07 1018 10 16 0.00 0.00
11:53 pm 23:53 Partly Cloudy 61 16.1 51 10.6 70 70 SSW 3 6 30.06 1018 10 16 0.00 0.00

Powered by AerisWeather